QPF
0.00 0.00 0.00 0.00 0.00 0.00 0.00 0.00 0.00 0.00 0.00 0.00 0.00 0.00 0.00 0.00 0.00 0.00 0.00 0.00 0.00 0.00 0.00 0.00 0.00 0.01 0.02 0.04 0.08 0.10 0.15 0.19 0.15 0.11 0.14 0.16 0.13 0.08 0.04 0.03 0.01 0.01 0.00
0.00 0.00 0.00 0.00 0.00 0.00 0.00 0.00 0.00 0.00 0.00 0.00 0.00 0.00 0.00 0.00 0.00 0.00 0.00 0.00 0.00 0.00 0.00 0.00 0.00 0.00 0.01 0.02 0.05 0.08 0.11 0.16 0.16 0.15 0.20 0.25 0.21 0.17 0.11 0.06 0.01 0.01 0.00
0.00 0.00 0.00 0.00 0.00 0.00 0.00 0.00 0.00 0.00 0.00 0.00 0.00 0.00 0.00 0.00 0.00 0.00 0.00 0.00 0.00 0.01 0.01 0.01 0.01 0.00 0.00 0.01 0.02 0.05 0.09 0.14 0.15 0.17 0.22 0.29 0.34 0.30 0.17 0.08 0.03 0.01 0.00
0.00 0.00 0.00 0.00 0.00 0.00 0.00 0.00 0.00 0.00 0.00 0.00 0.00 0.00 0.00 0.00 0.00 0.00 0.00 0.00 0.01 0.01 0.01 0.01 0.01 0.01 0.00 0.00 0.01 0.03 0.07 0.12 0.15 0.16 0.22 0.31 0.36 0.38 0.25 0.10 0.04 0.01 0.00
0.00 0.00 0.00 0.00 0.00 0.00 0.00 0.00 0.00 0.00 0.00 0.00 0.00 0.00 0.00 0.00 0.00 0.00 0.00 0.00 0.01 0.01 0.01 0.01 0.01 0.01 0.01 0.00 0.00 0.01 0.04 0.08 0.12 0.16 0.20 0.30 0.36 0.33 0.25 0.14 0.06 0.03 0.01
0.00 0.00 0.00 0.00 0.00 0.00 0.00 0.00 0.00 0.00 0.00 0.00 0.00 0.00 0.00 0.00 0.00 0.00 0.00 0.00 0.01 0.01 0.02 0.02 0.01 0.01 0.02 0.01 0.01 0.01 0.02 0.05 0.08 0.13 0.19 0.24 0.31 0.32 0.30 0.27 0.12 0.04 0.02
0.00 0.00 0.00 0.00 0.00 0.00 0.00 0.00 0.00 0.00 0.00 0.00 0.00 0.00 0.00 0.00 0.00 0.00 0.00 0.00 0.01 0.01 0.02 0.02 0.02 0.01 0.02 0.02 0.02 0.02 0.01 0.02 0.05 0.09 0.13 0.19 0.28 0.36 0.36 0.32 0.21 0.10 0.04
0.00 0.00 0.00 0.00 0.00 0.00 0.00 0.00 0.00 0.00 0.00 0.00 0.00 0.00 0.00 0.00 0.00 0.00 0.00 0.00 0.01 0.01 0.03 0.03 0.02 0.02 0.03 0.05 0.04 0.02 0.02 0.01 0.02 0.05 0.08 0.14 0.23 0.34 0.40 0.41 0.39 0.23 0.09
0.00 0.00 0.00 0.00 0.00 0.00 0.00 0.00 0.00 0.00 0.00 0.00 0.00 0.00 0.00 0.00 0.00 0.00 0.00 0.00 0.01 0.02 0.03 0.04 0.05 0.04 0.03 0.06 0.06 0.04 0.03 0.02 0.01 0.02 0.05 0.10 0.19 0.29 0.38 0.39 0.38 0.31 0.17
0.00 0.00 0.00 0.00 0.00 0.00 0.00 0.00 0.00 0.00 0.00 0.00 0.00 0.00 0.01 0.01 0.01 0.01 0.01 0.01 0.02 0.03 0.04 0.05 0.07 0.06 0.05 0.06 0.07 0.06 0.04 0.02 0.02 0.02 0.03 0.07 0.14 0.25 0.33 0.33 0.31 0.27 0.20
0.00 0.00 0.00 0.00 0.00 0.00 0.00 0.01 0.00 0.00 0.00 0.00 0.00 0.01 0.01 0.01 0.00 0.00 0.00 0.01 0.02 0.03 0.04 0.06 0.07 0.07 0.06 0.06 0.07 0.07 0.05 0.05 0.05 0.03 0.02 0.05 0.11 0.20 0.30 0.32 0.29 0.22 0.16
0.00 0.00 0.00 0.00 0.00 0.00 0.00 0.00 0.00 0.00 0.00 0.00 0.01 0.01 0.01 0.01 0.01 0.00 0.00 0.01 0.03 0.04 0.05 0.06 0.06 0.06 0.05 0.06 0.06 0.06 0.06 0.06 0.07 0.05 0.04 0.05 0.08 0.14 0.22 0.32 0.32 0.25 0.16
0.00 0.00 0.00 0.00 0.00 0.00 0.00 0.00 0.00 0.01 0.01 0.01 0.01 0.01 0.01 0.01 0.01 0.00 0.00 0.01 0.02 0.04 0.06 0.07 0.07 0.06 0.05 0.05 0.05 0.05 0.06 0.06 0.06 0.05 0.04 0.04 0.07 0.12 0.18 0.27 0.34 0.34 0.26
0.00 0.00 0.00 0.00 0.00 0.00 0.01 0.01 0.01 0.01 0.01 0.01 0.01 0.01 0.01 0.01 0.01 0.01 0.01 0.01 0.02 0.03 0.06 0.06 0.06 0.06 0.05 0.04 0.04 0.04 0.05 0.04 0.04 0.04 0.04 0.04 0.06 0.13 0.19 0.20 0.29 0.32 0.27
0.00 0.00 0.00 0.00 0.00 0.00 0.01 0.01 0.01 0.01 0.01 0.01 0.01 0.01 0.01 0.00 0.00 0.00 0.00 0.01 0.02 0.03 0.04 0.05 0.05 0.04 0.04 0.03 0.03 0.03 0.03 0.03 0.02 0.02 0.03 0.04 0.05 0.10 0.17 0.18 0.22 0.27 0.20
0.00 0.00 0.00 0.00 0.00 0.01 0.01 0.01 0.01 0.01 0.01 0.01 0.01 0.01 0.01 0.00 0.00 0.00 0.01 0.00 0.00 0.00 0.01 0.03 0.05 0.04 0.03 0.03 0.04 0.03 0.02 0.02 0.01 0.01 0.02 0.03 0.05 0.08 0.14 0.18 0.17 0.22 0.21
0.00 0.00 0.00 0.00 0.00 0.01 0.01 0.01 0.01 0.01 0.01 0.01 0.01 0.01 0.00 0.00 0.00 0.00 0.00 0.00 0.00 0.00 0.00 0.01 0.02 0.03 0.02 0.02 0.03 0.03 0.02 0.01 0.02 0.02 0.02 0.02 0.04 0.07 0.10 0.15 0.15 0.16 0.20
0.00 0.00 0.00 0.00 0.00 0.01 0.01 0.01 0.02 0.02 0.02 0.01 0.01 0.00 0.00 0.00 0.00 0.00 0.00 0.00 0.00 0.00 0.00 0.00 0.02 0.03 0.02 0.02 0.03 0.03 0.02 0.02 0.02 0.02 0.02 0.02 0.03 0.07 0.08 0.11 0.13 0.13 0.13
0.00 0.00 0.00 0.00 0.00 0.01 0.01 0.02 0.02 0.02 0.02 0.01 0.01 0.01 0.00 0.00 0.00 0.00 0.00 0.00 0.00 0.00 0.00 0.00 0.01 0.02 0.02 0.01 0.02 0.02 0.02 0.02 0.03 0.03 0.02 0.03 0.03 0.05 0.07 0.08 0.10 0.13 0.11
0.00 0.00 0.00 0.00 0.00 0.01 0.02 0.02 0.01 0.01 0.01 0.01 0.01 0.01 0.00 0.00 0.01 0.02 0.02 0.01 0.01 0.01 0.01 0.01 0.01 0.01 0.01 0.01 0.02 0.02 0.02 0.02 0.03 0.03 0.03 0.03 0.03 0.04 0.06 0.08 0.09 0.11 0.10
0.00 0.00 0.00 0.00 0.01 0.01 0.02 0.02 0.01 0.01 0.01 0.01 0.02 0.01 0.00 0.01 0.02 0.03 0.04 0.03 0.02 0.02 0.03 0.02 0.02 0.02 0.01 0.01 0.01 0.02 0.02 0.02 0.03 0.03 0.03 0.03 0.03 0.04 0.05 0.07 0.08 0.09 0.08
0.00 0.00 0.00 0.00 0.01 0.01 0.01 0.01 0.01 0.01 0.01 0.02 0.02 0.02 0.01 0.02 0.02 0.02 0.02 0.03 0.03 0.04 0.04 0.04 0.02 0.02 0.02 0.02 0.02 0.02 0.02 0.03 0.03 0.03 0.03 0.02 0.03 0.04 0.06 0.07 0.08 0.09 0.09
0.00 0.00 0.00 0.00 0.01 0.01 0.01 0.01 0.01 0.01 0.01 0.02 0.02 0.02 0.02 0.03 0.03 0.03 0.03 0.03 0.03 0.03 0.04 0.04 0.03 0.02 0.02 0.02 0.01 0.02 0.02 0.02 0.03 0.03 0.03 0.04 0.03 0.04 0.05 0.06 0.07 0.08 0.08
0.00 0.00 0.00 0.00 0.01 0.01 0.01 0.02 0.01 0.01 0.01 0.02 0.02 0.03 0.04 0.03 0.03 0.03 0.03 0.03 0.03 0.03 0.03 0.03 0.04 0.04 0.04 0.04 0.03 0.02 0.01 0.02 0.03 0.02 0.03 0.04 0.04 0.04 0.06 0.07 0.07 0.07 0.08
0.00 0.00 0.00 0.00 0.00 0.01 0.01 0.01 0.01 0.01 0.02 0.02 0.02 0.04 0.04 0.04 0.04 0.04 0.03 0.04 0.04 0.03 0.03 0.04 0.04 0.04 0.05 0.05 0.03 0.03 0.02 0.03 0.03 0.03 0.03 0.04 0.04 0.05 0.07 0.08 0.07 0.09 0.10
0.00 0.00 0.00 0.00 0.00 0.00 0.01 0.01 0.01 0.02 0.02 0.03 0.03 0.05 0.05 0.05 0.05 0.04 0.04 0.04 0.04 0.04 0.05 0.05 0.05 0.05 0.05 0.06 0.05 0.06 0.06 0.04 0.05 0.05 0.05 0.06 0.07 0.07 0.08 0.09 0.10 0.12 0.12
MSLP
1013.11 1013.05 1013.04 1013.03 1013.02 1012.96 1012.86 1012.72 1012.54 1012.35 1012.15 1011.95 1011.75 1011.54 1011.33 1011.10 1010.86 1010.61 1010.38 1010.18 1010.03 1009.92 1009.87 1009.85 1009.86 1009.86 1009.84 1009.78 1009.67 1009.50 1009.29 1009.04 1008.79 1008.54 1008.31 1008.14 1008.02 1007.98 1008.03 1008.17 1008.40 1008.72 1009.12
1012.82 1012.73 1012.68 1012.65 1012.60 1012.53 1012.43 1012.29 1012.12 1011.93 1011.74 1011.54 1011.33 1011.11 1010.89 1010.65 1010.41 1010.18 1009.95 1009.77 1009.62 1009.53 1009.48 1009.47 1009.49 1009.51 1009.52 1009.49 1009.44 1009.34 1009.21 1009.05 1008.87 1008.70 1008.54 1008.41 1008.33 1008.32 1008.37 1008.51 1008.73 1009.03 1009.39
1012.54 1012.43 1012.34 1012.26 1012.18 1012.07 1011.94 1011.78 1011.60 1011.41 1011.21 1011.01 1010.80 1010.59 1010.37 1010.15 1009.93 1009.71 1009.51 1009.34 1009.21 1009.13 1009.09 1009.08 1009.10 1009.12 1009.15 1009.15 1009.13 1009.09 1009.02 1008.93 1008.83 1008.73 1008.64 1008.57 1008.54 1008.56 1008.65 1008.81 1009.04 1009.34 1009.70
1012.24 1012.11 1011.98 1011.86 1011.72 1011.57 1011.39 1011.20 1011.00 1010.79 1010.58 1010.38 1010.18 1009.98 1009.78 1009.59 1009.39 1009.20 1009.03 1008.89 1008.77 1008.70 1008.66 1008.64 1008.66 1008.68 1008.70 1008.72 1008.73 1008.72 1008.70 1008.66 1008.62 1008.58 1008.55 1008.54 1008.57 1008.64 1008.77 1008.97 1009.24 1009.58 1009.96
1011.92 1011.76 1011.61 1011.44 1011.25 1011.04 1010.82 1010.58 1010.34 1010.11 1009.89 1009.69 1009.49 1009.31 1009.13 1008.96 1008.79 1008.63 1008.48 1008.35 1008.25 1008.18 1008.13 1008.11 1008.11 1008.13 1008.15 1008.17 1008.19 1008.21 1008.22 1008.22 1008.23 1008.24 1008.25 1008.30 1008.38 1008.50 1008.69 1008.95 1009.28 1009.66 1010.10
1011.57 1011.40 1011.22 1011.01 1010.78 1010.52 1010.24 1009.95 1009.68 1009.42 1009.18 1008.96 1008.77 1008.59 1008.42 1008.26 1008.10 1007.95 1007.82 1007.69 1007.59 1007.51 1007.46 1007.42 1007.41 1007.42 1007.44 1007.47 1007.50 1007.54 1007.58 1007.62 1007.66 1007.71 1007.78 1007.86 1007.99 1008.17 1008.41 1008.73 1009.12 1009.58 1010.09
1011.20 1011.03 1010.84 1010.60 1010.32 1010.01 1009.69 1009.36 1009.04 1008.75 1008.48 1008.24 1008.03 1007.84 1007.66 1007.49 1007.32 1007.17 1007.02 1006.88 1006.76 1006.67 1006.60 1006.55 1006.53 1006.53 1006.56 1006.60 1006.66 1006.73 1006.81 1006.89 1006.97 1007.07 1007.17 1007.29 1007.46 1007.68 1007.97 1008.34 1008.79 1009.33 1009.93
1010.83 1010.67 1010.47 1010.21 1009.90 1009.56 1009.19 1008.82 1008.46 1008.12 1007.82 1007.54 1007.30 1007.07 1006.86 1006.66 1006.46 1006.27 1006.09 1005.92 1005.77 1005.65 1005.56 1005.50 1005.48 1005.49 1005.53 1005.61 1005.71 1005.83 1005.96 1006.09 1006.23 1006.36 1006.50 1006.67 1006.87 1007.12 1007.44 1007.85 1008.35 1008.95 1009.62
1010.49 1010.34 1010.13 1009.86 1009.53 1009.15 1008.75 1008.34 1007.94 1007.56 1007.21 1006.89 1006.59 1006.32 1006.06 1005.80 1005.56 1005.32 1005.09 1004.88 1004.69 1004.53 1004.42 1004.35 1004.33 1004.35 1004.43 1004.55 1004.71 1004.89 1005.09 1005.29 1005.48 1005.67 1005.86 1006.05 1006.28 1006.55 1006.89 1007.32 1007.86 1008.49 1009.23
1010.17 1010.03 1009.82 1009.53 1009.18 1008.78 1008.34 1007.90 1007.46 1007.03 1006.64 1006.27 1005.92 1005.60 1005.28 1004.97 1004.68 1004.38 1004.10 1003.84 1003.61 1003.42 1003.29 1003.21 1003.19 1003.24 1003.36 1003.53 1003.75 1004.00 1004.27 1004.54 1004.80 1005.04 1005.27 1005.50 1005.75 1006.03 1006.38 1006.81 1007.35 1008.01 1008.77
1009.89 1009.74 1009.51 1009.20 1008.83 1008.40 1007.93 1007.46 1006.98 1006.53 1006.09 1005.68 1005.30 1004.93 1004.57 1004.22 1003.88 1003.54 1003.23 1002.93 1002.67 1002.45 1002.30 1002.21 1002.20 1002.27 1002.41 1002.63 1002.90 1003.21 1003.54 1003.88 1004.20 1004.49 1004.77 1005.03 1005.29 1005.57 1005.92 1006.34 1006.87 1007.52 1008.29
1009.62 1009.44 1009.18 1008.84 1008.44 1007.98 1007.49 1006.98 1006.49 1006.00 1005.55 1005.12 1004.71 1004.32 1003.95 1003.58 1003.23 1002.88 1002.54 1002.23 1001.95 1001.72 1001.55 1001.46 1001.44 1001.52 1001.67 1001.91 1002.21 1002.56 1002.94 1003.32 1003.68 1004.02 1004.33 1004.61 1004.88 1005.17 1005.50 1005.91 1006.42 1007.05 1007.81
1009.34 1009.11 1008.80 1008.42 1007.98 1007.49 1006.97 1006.45 1005.94 1005.45 1004.99 1004.56 1004.16 1003.78 1003.43 1003.08 1002.74 1002.41 1002.09 1001.79 1001.52 1001.29 1001.11 1001.01 1000.98 1001.04 1001.18 1001.41 1001.72 1002.07 1002.45 1002.85 1003.23 1003.59 1003.92 1004.21 1004.49 1004.78 1005.11 1005.50 1005.99 1006.59 1007.33
1009.02 1008.73 1008.36 1007.93 1007.44 1006.92 1006.38 1005.85 1005.33 1004.85 1004.40 1004.00 1003.63 1003.30 1002.99 1002.70 1002.41 1002.14 1001.86 1001.60 1001.35 1001.13 1000.96 1000.84 1000.79 1000.82 1000.93 1001.12 1001.38 1001.71 1002.07 1002.44 1002.82 1003.17 1003.50 1003.81 1004.10 1004.39 1004.72 1005.11 1005.58 1006.16 1006.87
1008.65 1008.29 1007.86 1007.38 1006.85 1006.29 1005.74 1005.20 1004.69 1004.22 1003.81 1003.44 1003.13 1002.86 1002.62 1002.40 1002.19 1001.99 1001.78 1001.57 1001.37 1001.18 1001.01 1000.88 1000.80 1000.78 1000.83 1000.96 1001.17 1001.43 1001.73 1002.06 1002.41 1002.74 1003.07 1003.37 1003.67 1003.98 1004.32 1004.71 1005.19 1005.76 1006.44
1008.23 1007.81 1007.33 1006.79 1006.23 1005.65 1005.08 1004.54 1004.04 1003.60 1003.22 1002.90 1002.64 1002.44 1002.28 1002.14 1002.01 1001.89 1001.75 1001.61 1001.45 1001.29 1001.13 1000.99 1000.88 1000.81 1000.81 1000.87 1000.99 1001.18 1001.41 1001.69 1001.98 1002.29 1002.60 1002.91 1003.22 1003.55 1003.92 1004.33 1004.82 1005.39 1006.06
1007.78 1007.32 1006.80 1006.23 1005.64 1005.05 1004.48 1003.94 1003.45 1003.02 1002.67 1002.39 1002.18 1002.03 1001.92 1001.85 1001.79 1001.73 1001.67 1001.58 1001.46 1001.33 1001.18 1001.04 1000.90 1000.80 1000.74 1000.74 1000.80 1000.91 1001.08 1001.30 1001.55 1001.83 1002.13 1002.44 1002.77 1003.13 1003.53 1003.98 1004.49 1005.08 1005.75
1007.34 1006.85 1006.31 1005.74 1005.14 1004.54 1003.97 1003.43 1002.95 1002.53 1002.19 1001.93 1001.74 1001.62 1001.54 1001.51 1001.49 1001.47 1001.44 1001.39 1001.31 1001.20 1001.06 1000.92 1000.78 1000.66 1000.57 1000.52 1000.53 1000.59 1000.72 1000.89 1001.11 1001.37 1001.67 1001.99 1002.35 1002.74 1003.18 1003.66 1004.21 1004.82 1005.49
1006.92 1006.44 1005.91 1005.34 1004.75 1004.16 1003.58 1003.05 1002.57 1002.15 1001.81 1001.54 1001.34 1001.21 1001.14 1001.10 1001.08 1001.07 1001.05 1001.01 1000.94 1000.85 1000.73 1000.60 1000.46 1000.34 1000.24 1000.18 1000.18 1000.22 1000.33 1000.48 1000.69 1000.95 1001.25 1001.59 1001.98 1002.40 1002.87 1003.39 1003.97 1004.60 1005.28
1006.55 1006.11 1005.61 1005.06 1004.48 1003.90 1003.34 1002.80 1002.31 1001.88 1001.52 1001.22 1001.00 1000.83 1000.72 1000.65 1000.60 1000.57 1000.53 1000.47 1000.40 1000.31 1000.20 1000.08 999.96 999.86 999.78 999.74 999.74 999.80 999.91 1000.08 1000.30 1000.57 1000.88 1001.24 1001.65 1002.10 1002.60 1003.15 1003.74 1004.39 1005.08
1006.26 1005.86 1005.39 1004.88 1004.33 1003.76 1003.20 1002.67 1002.16 1001.71 1001.32 1000.99 1000.72 1000.50 1000.34 1000.21 1000.11 1000.02 999.93 999.85 999.75 999.65 999.54 999.44 999.35 999.27 999.23 999.22 999.27 999.36 999.50 999.69 999.93 1000.22 1000.55 1000.93 1001.35 1001.82 1002.34 1002.90 1003.51 1004.16 1004.85
1006.02 1005.67 1005.25 1004.76 1004.24 1003.69 1003.14 1002.60 1002.09 1001.62 1001.20 1000.83 1000.51 1000.25 1000.02 999.83 999.66 999.51 999.37 999.24 999.11 998.99 998.88 998.78 998.71 998.66 998.66 998.70 998.78 998.92 999.09 999.32 999.58 999.89 1000.24 1000.62 1001.05 1001.53 1002.05 1002.61 1003.22 1003.87 1004.55
1005.83 1005.52 1005.14 1004.69 1004.18 1003.65 1003.11 1002.58 1002.06 1001.58 1001.14 1000.75 1000.40 1000.09 999.81 999.56 999.34 999.13 998.94 998.75 998.59 998.44 998.31 998.21 998.15 998.12 998.15 998.22 998.34 998.50 998.71 998.96 999.24 999.56 999.91 1000.30 1000.72 1001.19 1001.70 1002.25 1002.85 1003.49 1004.16
1005.66 1005.40 1005.04 1004.61 1004.13 1003.62 1003.09 1002.56 1002.05 1001.58 1001.14 1000.73 1000.37 1000.04 999.73 999.45 999.18 998.93 998.69 998.46 998.25 998.07 997.92 997.80 997.74 997.72 997.75 997.83 997.97 998.15 998.37 998.62 998.91 999.22 999.57 999.94 1000.35 1000.80 1001.29 1001.83 1002.41 1003.03 1003.69
1005.51 1005.27 1004.95 1004.54 1004.08 1003.58 1003.06 1002.55 1002.06 1001.60 1001.18 1000.79 1000.43 1000.10 999.79 999.50 999.21 998.93 998.66 998.39 998.15 997.93 997.75 997.61 997.52 997.48 997.50 997.57 997.70 997.87 998.08 998.32 998.59 998.89 999.21 999.57 999.95 1000.38 1000.85 1001.36 1001.93 1002.54 1003.19
1005.37 1005.16 1004.86 1004.47 1004.03 1003.55 1003.05 1002.57 1002.11 1001.67 1001.28 1000.91 1000.58 1000.27 999.98 999.69 999.40 999.11 998.82 998.53 998.26 998.01 997.79 997.61 997.49 997.42 997.40 997.45 997.54 997.68 997.86 998.07 998.31 998.58 998.88 999.20 999.56 999.96 1000.41 1000.91 1001.46 1002.06 1002.70
Thickness
5648 5644 5638 5634 5629 5624 5619 5616 5613 5609 5607 5604 5602 5601 5600 5600 5600 5601 5602 5604 5607 5611 5614 5618 5622 5626 5630 5634 5638 5643 5647 5652 5658 5669 5678 5686 5692 5697 5700 5703 5706 5710 5713
5644 5638 5632 5627 5622 5616 5612 5608 5604 5601 5598 5595 5593 5591 5590 5590 5590 5590 5590 5593 5594 5597 5601 5605 5610 5615 5619 5623 5628 5633 5639 5644 5650 5657 5666 5675 5682 5687 5690 5693 5696 5700 5703
5639 5633 5626 5621 5615 5610 5605 5601 5597 5593 5590 5587 5584 5582 5581 5580 5579 5579 5579 5580 5582 5584 5587 5591 5596 5600 5605 5611 5617 5623 5629 5636 5641 5648 5655 5664 5672 5676 5679 5682 5685 5689 5694
5635 5628 5621 5616 5610 5604 5599 5594 5590 5586 5583 5580 5577 5574 5572 5571 5570 5568 5568 5568 5569 5571 5574 5577 5581 5586 5592 5597 5604 5611 5618 5624 5631 5638 5645 5652 5660 5666 5671 5673 5674 5678 5683
5630 5623 5617 5611 5605 5599 5593 5588 5584 5580 5577 5573 5570 5566 5564 5561 5560 5557 5555 5555 5555 5556 5558 5561 5566 5571 5578 5584 5592 5598 5605 5612 5620 5627 5635 5641 5649 5655 5661 5665 5667 5669 5673
5626 5619 5613 5606 5599 5593 5588 5583 5578 5574 5570 5566 5562 5559 5555 5553 5552 5548 5545 5543 5541 5541 5542 5544 5548 5555 5563 5570 5579 5587 5594 5601 5608 5616 5624 5632 5641 5649 5654 5658 5660 5664 5666
5622 5615 5608 5601 5594 5588 5583 5577 5572 5568 5564 5559 5555 5551 5548 5545 5542 5538 5535 5532 5529 5528 5528 5530 5535 5542 5547 5554 5563 5573 5582 5591 5600 5607 5615 5624 5633 5642 5648 5650 5655 5658 5662
5617 5610 5603 5596 5589 5583 5576 5571 5566 5562 5557 5553 5549 5545 5541 5539 5536 5531 5527 5524 5520 5518 5518 5518 5520 5525 5531 5538 5545 5555 5566 5577 5589 5598 5607 5615 5624 5633 5641 5647 5650 5649 5651
5613 5605 5598 5591 5584 5578 5572 5567 5562 5557 5552 5548 5544 5540 5536 5533 5529 5525 5520 5515 5512 5510 5509 5509 5510 5514 5520 5525 5532 5541 5552 5562 5573 5584 5594 5603 5613 5622 5631 5635 5637 5640 5642
5609 5601 5594 5586 5579 5573 5568 5563 5558 5553 5548 5544 5540 5535 5531 5527 5523 5519 5514 5508 5504 5502 5500 5500 5503 5505 5510 5514 5521 5530 5539 5549 5560 5570 5580 5591 5601 5611 5621 5630 5635 5637 5639
5605 5597 5589 5582 5575 5569 5564 5559 5554 5549 5544 5539 5535 5531 5526 5521 5518 5514 5509 5503 5499 5496 5494 5493 5495 5498 5502 5507 5514 5522 5532 5540 5548 5558 5567 5578 5590 5600 5610 5620 5629 5635 5638
5600 5592 5585 5578 5571 5567 5560 5555 5550 5544 5539 5535 5529 5525 5521 5517 5513 5509 5505 5501 5497 5493 5491 5490 5491 5494 5498 5502 5508 5516 5524 5531 5539 5548 5558 5569 5580 5592 5602 5612 5620 5628 5634
5595 5587 5580 5574 5568 5562 5556 5551 5547 5541 5535 5531 5525 5520 5516 5512 5508 5505 5502 5499 5496 5492 5490 5490 5490 5493 5495 5500 5506 5512 5518 5525 5533 5542 5552 5563 5573 5584 5593 5601 5609 5616 5621
5590 5583 5577 5571 5566 5560 5554 5548 5543 5539 5533 5528 5523 5518 5513 5509 5504 5500 5497 5495 5494 5491 5489 5489 5490 5492 5495 5499 5504 5509 5515 5522 5530 5538 5547 5556 5565 5574 5585 5594 5601 5608 5611
5586 5580 5574 5569 5563 5558 5553 5547 5543 5538 5532 5527 5523 5517 5512 5508 5504 5499 5495 5493 5491 5490 5489 5489 5491 5492 5494 5498 5502 5507 5513 5519 5526 5534 5541 5549 5559 5569 5578 5587 5595 5601 5607
5583 5577 5572 5567 5562 5556 5551 5548 5545 5539 5535 5530 5524 5518 5513 5509 5505 5500 5497 5494 5493 5491 5490 5491 5494 5496 5498 5501 5504 5507 5512 5518 5524 5531 5538 5545 5554 5563 5572 5581 5588 5596 5602
5580 5575 5570 5565 5559 5555 5550 5545 5542 5541 5537 5532 5527 5521 5515 5510 5506 5501 5498 5496 5494 5493 5493 5495 5497 5499 5501 5504 5506 5509 5513 5519 5524 5530 5537 5543 5551 5559 5568 5576 5584 5591 5596
5578 5574 5569 5563 5558 5553 5549 5545 5541 5537 5534 5531 5528 5523 5518 5513 5508 5503 5499 5496 5496 5496 5496 5498 5501 5503 5505 5507 5510 5513 5516 5520 5524 5530 5536 5542 5549 5557 5565 5573 5580 5587 5592
5575 5570 5566 5561 5557 5553 5549 5546 5542 5538 5535 5531 5527 5524 5520 5515 5510 5506 5501 5498 5500 5501 5502 5503 5505 5507 5509 5512 5514 5516 5520 5523 5527 5531 5536 5542 5548 5555 5562 5569 5577 5581 5587
5571 5569 5566 5560 5557 5553 5549 5546 5543 5539 5536 5532 5528 5524 5520 5515 5512 5510 5506 5503 5504 5505 5507 5508 5511 5512 5514 5516 5518 5520 5523 5526 5529 5533 5537 5542 5547 5553 5560 5567 5574 5579 5584
5568 5564 5563 5559 5555 5552 5549 5546 5543 5540 5536 5533 5530 5527 5522 5517 5516 5514 5513 5511 5510 5511 5512 5514 5515 5517 5519 5520 5522 5524 5527 5529 5532 5535 5538 5542 5547 5553 5559 5565 5571 5575 5580
5563 5559 5557 5555 5553 5550 5548 5546 5544 5541 5537 5535 5532 5529 5526 5521 5519 5517 5517 5517 5516 5517 5517 5518 5520 5522 5524 5525 5527 5528 5530 5532 5534 5537 5540 5544 5548 5552 5557 5563 5568 5572 5576
5559 5557 5555 5553 5551 5549 5547 5545 5543 5540 5538 5535 5532 5529 5526 5523 5522 5521 5520 5520 5520 5520 5521 5522 5523 5525 5527 5529 5531 5533 5534 5537 5539 5541 5543 5545 5548 5552 5556 5561 5566 5571 5575
5554 5553 5551 5549 5547 5545 5544 5543 5542 5540 5538 5536 5533 5530 5527 5525 5524 5523 5522 5522 5522 5522 5523 5524 5526 5528 5530 5532 5534 5536 5538 5540 5542 5544 5546 5548 5550 5553 5557 5561 5566 5569 5573
5550 5549 5547 5544 5543 5541 5540 5540 5540 5539 5538 5536 5534 5531 5530 5528 5526 5524 5523 5523 5523 5524 5525 5526 5527 5529 5531 5533 5535 5537 5538 5540 5541 5544 5546 5549 5551 5554 5558 5561 5565 5569 5572
5546 5544 5542 5540 5538 5537 5537 5537 5538 5538 5537 5536 5535 5533 5531 5529 5527 5526 5524 5523 5523 5523 5524 5525 5527 5529 5530 5532 5534 5535 5537 5539 5541 5543 5547 5549 5551 5555 5558 5561 5564 5568 5570